Location: Unspecified
(0.0000°N, 0.0000°E)
Time: 11:45:25
(UTC+02:00)

SWIFT - Visible Passes

Search period start: 20 October 2014 00:00
Search period end: 29 October 2014 23:00
Orbit: 560 x 576 km, 20.6° (Epoch: 18 October)

Date Brightness Start Highest point End Pass type
(mag) Time Alt. Az. Time Alt. Az. Time Alt. Az.
20 Oct 3.8 06:11:41 27° N 06:11:41 27° N 06:14:28 10° NE visible
21 Oct 4.3 06:11:01 18° N 06:11:01 18° N 06:12:59 10° NNE visible
22 Oct 4.7 06:10:18 13° N 06:10:18 13° N 06:11:18 10° NNE visible
28 Oct 4.8 20:27:16 10° SSW 20:28:49 13° S 20:28:49 13° S visible
29 Oct 4.4 20:25:26 10° SSW 20:27:47 18° S 20:27:47 18° S visible
